Terminal Aerodrome Forecast
Issued by NWS Wichita, KS

Home | Current Version | Previous Version | Graphics & Text | Print | Product List | Glossary On
Versions: 1 2 3 4 5 6 7 8 9 10 11 12 13 14 15 16 17 18 19 20
699
FTUS43 KICT 161735
TAFICT
TAF
KICT 161735Z 1618/1718 23011KT 5SM -RA BR OVC006
      TEMPO 1618/1620 3SM BR OVC004
     FM162100 27008KT 5SM BR OVC008
     FM170000 31011KT 4SM BR OVC006
     FM171400 32008KT P6SM SCT015=

USA.gov is the U.S. government's official web portal to all federal, state and local government web resources and services.